Alvaton, GA

4:58 AM EDT on August 31, 2015 (GMT -0400)
Georgia Jets Airfield | | Change Station
CLOSE
Current Station
Personal Weather Station
Location: Gay, GA
Elevation: 870 ft
Nearby Weather Stations

Elev 870 ft 33.14 °N, 84.61 °W | Updated 1 second ago

Overcast
Overcast
68.8 °F
Feels Like 68.8 °F
N
3.0
Wind Variable Wind from ENE
Gusts 5.0 mph

Today
High -- | Low -- °F
--% Chance of Precip.
Yesterday
High -- | Low -- °F
Precip. -- in
7:12 AM 8:05 PM
Waning Gibbous, 96% visible
Pressure 30.08 in
Visibility 0.8 miles
Clouds Overcast 300 ft
Dew Point 67 °F
Humidity 95%
Rainfall 0.00 in
Snow Depth Not available.
UV 0 out of 12
Pollen 6.60 out of 12
Air Quality Not available.
Flu Activity Not available.
METAR KFFC 310810Z AUTO 05003KT 3/4SM BR OVC003 20/19 A3008 RMK AO2 T02000194
Pressure 30.08 in
Visibility 0.8 miles
Clouds Overcast 300 ft
Dew Point 67 °F
Humidity 95%
Rainfall 0.00 in
Snow Depth Not available.
UV 0 out of 12
Pollen 6.60 out of 12
Air Quality Not available.
Flu Activity Not available.
METAR KFFC 310810Z AUTO 05003KT 3/4SM BR OVC003 20/19 A3008 RMK AO2 T02000194

10-Day Weather Forecast

×

Almanac

Astronomy

Aug. 31, 2015 Rise Set
Actual Time
Civil Twilight
Nautical Twilight
Astronomical Twilight
Moon
Length of Visible Light
Length of Day
Tomorrow will be .
, % of the Moon is Illuminated

Today's Extremes

State Highs State Lows

Community

WunderPhotos

Upload Photos

1,851,220 photos uploaded!

WunderBlogs® & News

Nearby

Air Quality

  Air Quality AQ Index Pollutant
Not available.

Snow Depth

Station Depth Elevation

Earthquake Activity

City Distance Mag. Time & Date
Minimum magnitude displayed is 2.5.

Coastal Water Temperatures

Place Temperature

Stations

Nearby Weather Stations

Station Location Temp. Windchill Dew Point Humidity Wind Precip. Elev Updated Type